Location: Kumla
(59.1265°N, 15.1401°E)
Time: 17:25:42
(UTC+01:00)

Transit 2A - Pass Details

Date: 03 December 2023
Orbit: 600 x 953 km, 66.7° (Epoch: 27 February)

Event Time Altitude Azimuth Distance (km) Brightness Sun altitude
Rises 00:37:58 0° 310° (NW) 2,887 - -51.9°
Reaches altitude 10° 00:40:24 10° 301° (WNW) 1,961 - -51.8°
Maximum altitude 00:44:18 33° 237° (WSW) 1,024 - -51.6°
Drops below altitude 10° 00:48:12 10° 174° (S) 1,958 - -51.4°
Sets 00:50:38 0° 164° (SSE) 2,882 - -51.3°
